Starlink 4569

operational
NORAD ID: 53687 Int'l Des: 2022-105 Owner: SPXS Country: US Constellation: starlink
LEOCIRCULARRETROGRADESSO

关于 Starlink 4569

正在加载描述...

实时位置

正在加载3D地球...

即将过境

高度历史

Altitude vs Time

uPlot chart will show altitude changes over time

两行轨道根数

1 53687U 22105AR 25260.62838314 .00000731 00000-0 61483-4 0 9996
2 53687 97.6042 140.7825 0002920 103.0940 257.0610 15.01259392167277
Epoch: Sep 17, 2025 • Age: 22 hours

当前状态

高度 566.5 km
速度 7.58 km/s
星下点 -4.15°S, 133.02°E
发射日期 Aug 31, 2022
运行时间 3 years
类型 internet

技术详情

分类 Payload
质量 300.00 kg
干质量 290.00 kg
总质量 300.00 kg
长度 0.20 m
直径 2.80 m
跨度 9.00 m
形状 Box + pan
制造商 SPXS
平台类型 Starlink
阶段状态 In Orbit
所有者/国家 SPXS/US

大型星座

Loading constellations...